Year,Month,Day,Hour,Minute,Value (Times are PST for insolation in W/m^2)
2018,01,28,00,00,0.00
2018,01,28,00,01,0.00
2018,01,28,00,02,0.00
2018,01,28,00,03,0.00
2018,01,28,00,04,0.00
2018,01,28,00,05,0.00
2018,01,28,00,06,0.00
2018,01,28,00,07,0.00
2018,01,28,00,08,0.00
2018,01,28,00,09,0.00
2018,01,28,00,10,0.00
2018,01,28,00,11,0.00
2018,01,28,00,12,0.00
2018,01,28,00,13,0.00
2018,01,28,00,14,0.00
2018,01,28,00,15,0.00
2018,01,28,00,16,0.00
2018,01,28,00,17,0.00
2018,01,28,00,18,0.00
2018,01,28,00,19,0.00
2018,01,28,00,20,0.00
2018,01,28,00,21,0.00
2018,01,28,00,22,0.00
2018,01,28,00,23,0.00
2018,01,28,00,24,0.00
2018,01,28,00,25,0.00
2018,01,28,00,26,0.00
2018,01,28,00,27,0.00
2018,01,28,00,28,0.00
2018,01,28,00,29,0.00
2018,01,28,00,30,0.00
2018,01,28,00,31,0.00
2018,01,28,00,32,0.00
2018,01,28,00,33,0.00
2018,01,28,00,34,0.00
2018,01,28,00,35,0.00
2018,01,28,00,36,0.00
2018,01,28,00,37,0.00
2018,01,28,00,38,0.00
2018,01,28,00,39,0.00
2018,01,28,00,40,0.00
2018,01,28,00,41,0.00
2018,01,28,00,42,0.00
2018,01,28,00,43,0.00
2018,01,28,00,44,0.00
2018,01,28,00,45,0.00
2018,01,28,00,46,0.00
2018,01,28,00,47,0.00
2018,01,28,00,48,0.00
2018,01,28,00,49,0.00
2018,01,28,00,50,0.00
2018,01,28,00,51,0.00
2018,01,28,00,52,0.00
2018,01,28,00,53,0.00
2018,01,28,00,54,0.00
2018,01,28,00,55,0.00
2018,01,28,00,56,0.00
2018,01,28,00,57,0.00
2018,01,28,00,58,0.00
2018,01,28,00,59,0.00
2018,01,28,01,00,0.00
2018,01,28,01,01,0.00
2018,01,28,01,02,0.00
2018,01,28,01,03,0.00
2018,01,28,01,04,0.00
2018,01,28,01,05,0.00
2018,01,28,01,06,0.00
2018,01,28,01,07,0.00
2018,01,28,01,08,0.00
2018,01,28,01,09,0.00
2018,01,28,01,10,0.00
2018,01,28,01,11,0.00
2018,01,28,01,12,0.00
2018,01,28,01,13,0.00
2018,01,28,01,14,0.00
2018,01,28,01,15,0.00
2018,01,28,01,16,0.00
2018,01,28,01,17,0.00
2018,01,28,01,18,0.00
2018,01,28,01,19,0.00
2018,01,28,01,20,0.00
2018,01,28,01,21,0.00
2018,01,28,01,22,0.00
2018,01,28,01,23,0.00
2018,01,28,01,24,0.00
2018,01,28,01,25,0.00
2018,01,28,01,26,0.00
2018,01,28,01,27,0.00
2018,01,28,01,28,0.00
2018,01,28,01,29,0.00
2018,01,28,01,30,0.00
2018,01,28,01,31,0.00
2018,01,28,01,32,0.00
2018,01,28,01,33,0.00
2018,01,28,01,34,0.00
2018,01,28,01,35,0.00
2018,01,28,01,36,0.00
2018,01,28,01,37,0.00
2018,01,28,01,38,0.00
2018,01,28,01,39,0.00
2018,01,28,01,40,0.00
2018,01,28,01,41,0.00
2018,01,28,01,42,0.00
2018,01,28,01,43,0.00
2018,01,28,01,44,0.00
2018,01,28,01,45,0.00
2018,01,28,01,46,0.00
2018,01,28,01,47,0.00
2018,01,28,01,48,0.00
2018,01,28,01,49,0.00
2018,01,28,01,50,0.00
2018,01,28,01,51,0.00
2018,01,28,01,52,0.00
2018,01,28,01,53,0.00
2018,01,28,01,54,0.00
2018,01,28,01,55,0.00
2018,01,28,01,56,0.00
2018,01,28,01,57,0.00
2018,01,28,01,58,0.00
2018,01,28,01,59,0.00
2018,01,28,02,00,0.00
2018,01,28,02,01,0.00
2018,01,28,02,02,0.00
2018,01,28,02,03,0.00
2018,01,28,02,04,0.00
2018,01,28,02,05,0.00
2018,01,28,02,06,0.00
2018,01,28,02,07,0.00
2018,01,28,02,08,0.00
2018,01,28,02,09,0.00
2018,01,28,02,10,0.00
2018,01,28,02,11,0.00
2018,01,28,02,12,0.00
2018,01,28,02,13,0.00
2018,01,28,02,14,0.00
2018,01,28,02,15,0.00
2018,01,28,02,16,0.00
2018,01,28,02,17,0.00
2018,01,28,02,18,0.00
2018,01,28,02,19,0.00
2018,01,28,02,20,0.00
2018,01,28,02,21,0.00
2018,01,28,02,22,0.00
2018,01,28,02,23,0.00
2018,01,28,02,24,0.00
2018,01,28,02,25,0.00
2018,01,28,02,26,0.00
2018,01,28,02,27,0.00
2018,01,28,02,28,0.00
2018,01,28,02,29,0.00
2018,01,28,02,30,0.00
2018,01,28,02,31,0.00
2018,01,28,02,32,0.00
2018,01,28,02,33,0.00
2018,01,28,02,34,0.00
2018,01,28,02,35,0.00
2018,01,28,02,36,0.00
2018,01,28,02,37,0.00
2018,01,28,02,38,0.00
2018,01,28,02,39,0.00
2018,01,28,02,40,0.00
2018,01,28,02,41,0.00
2018,01,28,02,42,0.00
2018,01,28,02,43,0.00
2018,01,28,02,44,0.00
2018,01,28,02,45,0.00
2018,01,28,02,46,0.00
2018,01,28,02,47,0.00
2018,01,28,02,48,0.00
2018,01,28,02,49,0.00
2018,01,28,02,50,0.00
2018,01,28,02,51,0.00
2018,01,28,02,52,0.00
2018,01,28,02,53,0.00
2018,01,28,02,54,0.00
2018,01,28,02,55,0.00
2018,01,28,02,56,0.00
2018,01,28,02,57,0.00
2018,01,28,02,58,0.00
2018,01,28,02,59,0.00
2018,01,28,03,00,0.00
2018,01,28,03,01,0.00
2018,01,28,03,02,0.00
2018,01,28,03,03,0.00
2018,01,28,03,04,0.00
2018,01,28,03,05,0.00
2018,01,28,03,06,0.00
2018,01,28,03,07,0.00
2018,01,28,03,08,0.00
2018,01,28,03,09,0.00
2018,01,28,03,10,0.00
2018,01,28,03,11,0.00
2018,01,28,03,12,0.00
2018,01,28,03,13,0.00
2018,01,28,03,14,0.00
2018,01,28,03,15,0.00
2018,01,28,03,16,0.00
2018,01,28,03,17,0.00
2018,01,28,03,18,0.00
2018,01,28,03,19,0.00
2018,01,28,03,20,0.00
2018,01,28,03,21,0.00
2018,01,28,03,22,0.00
2018,01,28,03,23,0.00
2018,01,28,03,24,0.00
2018,01,28,03,25,0.00
2018,01,28,03,26,0.00
2018,01,28,03,27,0.00
2018,01,28,03,28,0.00
2018,01,28,03,29,0.00
2018,01,28,03,30,0.00
2018,01,28,03,31,0.00
2018,01,28,03,32,0.00
2018,01,28,03,33,0.00
2018,01,28,03,34,0.00
2018,01,28,03,35,0.00
2018,01,28,03,36,0.00
2018,01,28,03,37,0.00
2018,01,28,03,38,0.00
2018,01,28,03,39,0.00
2018,01,28,03,40,0.00
2018,01,28,03,41,0.00
2018,01,28,03,42,0.00
2018,01,28,03,43,0.00
2018,01,28,03,44,0.00
2018,01,28,03,45,0.00
2018,01,28,03,46,0.00
2018,01,28,03,47,0.00
2018,01,28,03,48,0.00
2018,01,28,03,49,0.00
2018,01,28,03,50,0.00
2018,01,28,03,51,0.00
2018,01,28,03,52,0.00
2018,01,28,03,53,0.00
2018,01,28,03,54,0.00
2018,01,28,03,55,0.00
2018,01,28,03,56,0.00
2018,01,28,03,57,0.00
2018,01,28,03,58,0.00
2018,01,28,03,59,0.00
2018,01,28,04,00,0.00
2018,01,28,04,01,0.00
2018,01,28,04,02,0.00
2018,01,28,04,03,0.00
2018,01,28,04,04,0.00
2018,01,28,04,05,0.00
2018,01,28,04,06,0.00
2018,01,28,04,07,0.00
2018,01,28,04,08,0.00
2018,01,28,04,09,0.00
2018,01,28,04,10,0.00
2018,01,28,04,11,0.00
2018,01,28,04,12,0.00
2018,01,28,04,13,0.00
2018,01,28,04,14,0.00
2018,01,28,04,15,0.00
2018,01,28,04,16,0.00
2018,01,28,04,17,0.00
2018,01,28,04,18,0.00
2018,01,28,04,19,0.00
2018,01,28,04,20,0.00
2018,01,28,04,21,0.00
2018,01,28,04,22,0.00
2018,01,28,04,23,0.00
2018,01,28,04,24,0.00
2018,01,28,04,25,0.00
2018,01,28,04,26,0.00
2018,01,28,04,27,0.00
2018,01,28,04,28,0.00
2018,01,28,04,29,0.00
2018,01,28,04,30,0.00
2018,01,28,04,31,0.00
2018,01,28,04,32,0.00
2018,01,28,04,33,0.00
2018,01,28,04,34,0.00
2018,01,28,04,35,0.00
2018,01,28,04,36,0.00
2018,01,28,04,37,0.00
2018,01,28,04,38,0.00
2018,01,28,04,39,0.00
2018,01,28,04,40,0.00
2018,01,28,04,41,0.00
2018,01,28,04,42,0.00
2018,01,28,04,43,0.00
2018,01,28,04,44,0.00
2018,01,28,04,45,0.00
2018,01,28,04,46,0.00
2018,01,28,04,47,0.00
2018,01,28,04,48,0.00
2018,01,28,04,49,0.00
2018,01,28,04,50,0.00
2018,01,28,04,51,0.00
2018,01,28,04,52,0.00
2018,01,28,04,53,0.00
2018,01,28,04,54,0.00
2018,01,28,04,55,0.00
2018,01,28,04,56,0.00
2018,01,28,04,57,0.00
2018,01,28,04,58,0.00
2018,01,28,04,59,0.00
2018,01,28,05,00,0.00
2018,01,28,05,01,0.00
2018,01,28,05,02,0.00
2018,01,28,05,03,0.00
2018,01,28,05,04,0.00
2018,01,28,05,05,0.00
2018,01,28,05,06,0.00
2018,01,28,05,07,0.00
2018,01,28,05,08,0.00
2018,01,28,05,09,0.00
2018,01,28,05,10,0.00
2018,01,28,05,11,0.00
2018,01,28,05,12,0.00
2018,01,28,05,13,0.00
2018,01,28,05,14,0.00
2018,01,28,05,15,0.00
2018,01,28,06,14,0.00
2018,01,28,06,15,0.00
2018,01,28,06,16,0.00
2018,01,28,06,17,0.00
2018,01,28,06,18,0.00
2018,01,28,06,19,0.00
2018,01,28,06,20,0.00
2018,01,28,06,21,0.00
2018,01,28,06,22,0.00
2018,01,28,06,23,0.00
2018,01,28,06,24,0.00
2018,01,28,06,25,0.00
2018,01,28,06,26,0.00
2018,01,28,06,27,0.00
2018,01,28,06,28,0.00
2018,01,28,06,29,0.00
2018,01,28,06,30,0.00
2018,01,28,06,31,0.00
2018,01,28,06,32,0.00
2018,01,28,06,33,0.00
2018,01,28,06,34,0.00
2018,01,28,06,35,0.00
2018,01,28,06,36,0.00
2018,01,28,06,37,0.00
2018,01,28,06,38,0.00
2018,01,28,06,39,0.00
2018,01,28,06,40,0.00
2018,01,28,06,41,0.00
2018,01,28,06,42,0.00
2018,01,28,06,43,0.00
2018,01,28,06,44,0.00
2018,01,28,06,45,0.00
2018,01,28,06,46,0.00
2018,01,28,06,47,0.00
2018,01,28,06,48,0.00
2018,01,28,06,49,0.00
2018,01,28,06,50,0.00
2018,01,28,06,51,0.00
2018,01,28,06,52,0.00
2018,01,28,06,53,0.00
2018,01,28,06,54,0.00
2018,01,28,06,55,0.00
2018,01,28,06,56,0.00
2018,01,28,06,57,0.00
2018,01,28,06,58,0.00
2018,01,28,06,59,0.00
2018,01,28,07,00,0.00
2018,01,28,07,01,0.00
2018,01,28,07,02,0.00
2018,01,28,07,03,0.00
2018,01,28,07,04,0.00
2018,01,28,07,05,0.00
2018,01,28,07,06,0.00
2018,01,28,07,07,0.00
2018,01,28,07,08,0.00
2018,01,28,07,09,0.00
2018,01,28,07,10,0.00
2018,01,28,07,11,0.00
2018,01,28,07,12,0.00
2018,01,28,07,13,0.00
2018,01,28,07,14,0.00
2018,01,28,07,15,0.00
2018,01,28,07,16,0.00
2018,01,28,07,17,0.00
2018,01,28,07,18,0.00
2018,01,28,07,19,0.00
2018,01,28,07,20,0.00
2018,01,28,07,21,0.00
2018,01,28,07,22,0.00
2018,01,28,07,23,0.00
2018,01,28,07,24,0.00
2018,01,28,07,25,0.00
2018,01,28,07,26,0.00
2018,01,28,07,27,0.00
2018,01,28,07,28,0.00
2018,01,28,07,29,0.00
2018,01,28,07,30,0.00
2018,01,28,07,31,0.00
2018,01,28,07,32,0.00
2018,01,28,07,33,0.00
2018,01,28,07,34,0.00
2018,01,28,07,35,0.00
2018,01,28,07,36,0.00
2018,01,28,07,37,0.00
2018,01,28,07,38,0.00
2018,01,28,07,39,0.00
2018,01,28,07,40,0.00
2018,01,28,07,41,0.00
2018,01,28,07,42,0.00
2018,01,28,07,43,0.00
2018,01,28,07,44,0.00
2018,01,28,07,45,0.00
2018,01,28,07,46,0.00
2018,01,28,07,47,0.00
2018,01,28,07,48,0.00
2018,01,28,07,49,0.00
2018,01,28,07,50,0.00
2018,01,28,07,51,0.00
2018,01,28,07,52,0.00
2018,01,28,07,53,0.00
2018,01,28,07,54,0.00
2018,01,28,07,55,0.00
2018,01,28,07,56,0.00
2018,01,28,07,57,0.00
2018,01,28,07,58,0.00
2018,01,28,07,59,0.00
2018,01,28,08,00,0.00
2018,01,28,08,01,0.00
2018,01,28,08,02,0.00
2018,01,28,08,03,0.00
2018,01,28,08,04,0.00
2018,01,28,08,05,0.00
2018,01,28,08,06,0.00
2018,01,28,08,07,0.00
2018,01,28,08,08,0.00
2018,01,28,08,09,0.00
2018,01,28,08,10,0.00
2018,01,28,08,11,0.00
2018,01,28,08,12,0.00
2018,01,28,08,13,0.00
2018,01,28,08,14,0.00
2018,01,28,08,15,0.00
2018,01,28,08,16,0.00
2018,01,28,08,17,0.00
2018,01,28,08,18,0.00
2018,01,28,08,19,0.00
2018,01,28,08,20,0.00
2018,01,28,08,21,0.00
2018,01,28,08,22,0.00
2018,01,28,08,23,0.00
2018,01,28,08,24,0.00
2018,01,28,08,25,0.00
2018,01,28,08,26,0.00
2018,01,28,08,27,0.00
2018,01,28,08,28,0.00
2018,01,28,08,29,0.00
2018,01,28,08,30,2.20
2018,01,28,08,31,5.00
2018,01,28,08,32,5.00
2018,01,28,08,33,5.00
2018,01,28,08,34,5.00
2018,01,28,08,35,5.00
2018,01,28,08,36,5.00
2018,01,28,08,37,5.90
2018,01,28,08,38,5.90
2018,01,28,08,39,5.00
2018,01,28,08,40,6.70
2018,01,28,08,41,7.00
2018,01,28,08,42,7.00
2018,01,28,08,43,7.00
2018,01,28,08,44,7.00
2018,01,28,08,45,7.00
2018,01,28,08,46,7.00
2018,01,28,08,47,7.00
2018,01,28,08,48,7.00
2018,01,28,08,49,7.40
2018,01,28,08,50,9.00
2018,01,28,08,51,9.00
2018,01,28,08,52,9.00
2018,01,28,08,53,9.00
2018,01,28,08,54,9.00
2018,01,28,08,55,10.90
2018,01,28,08,56,11.00
2018,01,28,08,57,11.00
2018,01,28,08,58,11.00
2018,01,28,08,59,11.00
2018,01,28,09,00,11.00
2018,01,28,09,01,11.00
2018,01,28,09,02,11.00
2018,01,28,09,03,11.20
2018,01,28,09,04,12.00
2018,01,28,09,05,13.00
2018,01,28,09,06,14.00
2018,01,28,09,07,14.00
2018,01,28,09,08,12.30
2018,01,28,09,09,13.90
2018,01,28,09,10,12.00
2018,01,28,09,11,12.00
2018,01,28,09,12,12.00
2018,01,28,09,13,12.00
2018,01,28,09,14,12.00
2018,01,28,09,15,12.00
2018,01,28,09,16,16.00
2018,01,28,09,17,18.00
2018,01,28,09,18,18.00
2018,01,28,09,19,19.30
2018,01,28,09,20,21.00
2018,01,28,09,21,21.00
2018,01,28,09,22,24.40
2018,01,28,09,23,25.00
2018,01,28,09,24,25.50
2018,01,28,09,25,28.00
2018,01,28,09,26,28.00
2018,01,28,09,27,26.80
2018,01,28,09,28,26.00
2018,01,28,09,29,26.00
2018,01,28,09,30,26.00
2018,01,28,09,31,26.70
2018,01,28,09,32,30.00
2018,01,28,09,33,30.90
2018,01,28,09,34,29.70
2018,01,28,09,35,28.00
2018,01,28,09,36,28.00
2018,01,28,09,37,25.10
2018,01,28,09,38,24.20
2018,01,28,09,39,21.00
2018,01,28,09,40,20.10
2018,01,28,09,41,19.00
2018,01,28,09,42,19.00
2018,01,28,09,43,19.00
2018,01,28,09,44,14.30
2018,01,28,09,45,14.00
2018,01,28,09,46,13.40
2018,01,28,09,47,12.00
2018,01,28,09,48,12.00
2018,01,28,09,49,13.40
2018,01,28,09,50,15.70
2018,01,28,09,51,16.00
2018,01,28,09,52,16.40
2018,01,28,09,53,18.30
2018,01,28,09,54,19.00
2018,01,28,09,55,19.00
2018,01,28,09,56,19.00
2018,01,28,09,57,19.00
2018,01,28,09,58,19.00
2018,01,28,09,59,19.00
2018,01,28,10,00,19.00
2018,01,28,10,01,19.00
2018,01,28,10,02,18.40
2018,01,28,10,03,18.70
2018,01,28,10,04,20.70
2018,01,28,10,05,21.00
2018,01,28,10,06,21.00
2018,01,28,10,07,20.30
2018,01,28,10,08,19.00
2018,01,28,10,09,19.00
2018,01,28,10,10,19.00
2018,01,28,10,11,18.20
2018,01,28,10,12,18.90
2018,01,28,10,13,19.00
2018,01,28,10,14,19.00
2018,01,28,10,15,19.00
2018,01,28,10,16,19.00
2018,01,28,10,17,19.00
2018,01,28,10,18,19.00
2018,01,28,10,19,19.00
2018,01,28,10,20,19.00
2018,01,28,10,21,19.60
2018,01,28,10,22,21.00
2018,01,28,10,23,21.00
2018,01,28,10,24,22.40
2018,01,28,10,25,23.00
2018,01,28,10,26,23.00
2018,01,28,10,27,23.00
2018,01,28,10,28,23.00
2018,01,28,10,29,23.00
2018,01,28,10,30,23.00
2018,01,28,10,31,23.00
2018,01,28,10,32,23.00
2018,01,28,10,33,21.10
2018,01,28,10,34,21.00
2018,01,28,10,35,21.00
2018,01,28,10,36,21.00
2018,01,28,10,37,22.20
2018,01,28,10,38,23.00
2018,01,28,10,39,23.00
2018,01,28,10,40,23.00
2018,01,28,10,41,23.00
2018,01,28,10,42,22.40
2018,01,28,10,43,21.00
2018,01,28,10,44,21.00
2018,01,28,10,45,21.00
2018,01,28,10,46,22.70
2018,01,28,10,47,21.10
2018,01,28,10,48,21.30
2018,01,28,10,49,23.00
2018,01,28,10,50,23.90
2018,01,28,10,51,25.00
2018,01,28,10,52,25.00
2018,01,28,10,53,25.00
2018,01,28,10,54,23.10
2018,01,28,10,55,23.00
2018,01,28,10,56,23.00
2018,01,28,10,57,22.10
2018,01,28,10,58,21.00
2018,01,28,10,59,21.00
2018,01,28,11,00,21.00
2018,01,28,11,01,22.90
2018,01,28,11,02,23.00
2018,01,28,11,03,23.60
2018,01,28,11,04,25.00
2018,01,28,11,05,23.80
2018,01,28,11,06,21.60
2018,01,28,11,07,21.00
2018,01,28,11,08,21.10
2018,01,28,11,09,23.00
2018,01,28,11,10,23.00
2018,01,28,11,11,23.00
2018,01,28,11,12,23.00
2018,01,28,11,13,23.00
2018,01,28,11,14,25.50
2018,01,28,11,15,26.10
2018,01,28,11,16,28.00
2018,01,28,11,17,28.60
2018,01,28,11,18,29.10
2018,01,28,11,19,28.00
2018,01,28,11,20,28.00
2018,01,28,11,21,28.00
2018,01,28,11,22,31.60
2018,01,28,11,23,30.00
2018,01,28,11,24,30.00
2018,01,28,11,25,29.10
2018,01,28,11,26,28.00
2018,01,28,11,27,28.00
2018,01,28,11,28,28.00
2018,01,28,11,29,28.00
2018,01,28,11,30,27.50
2018,01,28,11,31,25.00
2018,01,28,11,32,25.40
2018,01,28,11,33,26.00
2018,01,28,11,34,26.00
2018,01,28,11,35,25.20
2018,01,28,11,36,23.10
2018,01,28,11,37,23.00
2018,01,28,11,38,23.00
2018,01,28,11,39,23.00
2018,01,28,11,40,23.00
2018,01,28,11,41,24.40
2018,01,28,11,42,25.00
2018,01,28,11,43,25.00
2018,01,28,11,44,25.00
2018,01,28,11,45,25.90
2018,01,28,11,46,28.00
2018,01,28,11,47,28.00
2018,01,28,11,48,29.40
2018,01,28,11,49,30.00
2018,01,28,11,50,30.00
2018,01,28,11,51,30.30
2018,01,28,11,52,32.00
2018,01,28,11,53,31.10
2018,01,28,11,54,30.00
2018,01,28,11,55,30.00
2018,01,28,11,56,30.00
2018,01,28,11,57,30.00
2018,01,28,11,58,30.00
2018,01,28,11,59,30.70
2018,01,28,12,00,31.10
2018,01,28,12,01,30.00
2018,01,28,12,02,30.00
2018,01,28,12,03,28.40
2018,01,28,12,04,28.00
2018,01,28,12,05,28.00
2018,01,28,12,06,28.60
2018,01,28,12,07,30.00
2018,01,28,12,08,28.90
2018,01,28,12,09,28.00
2018,01,28,12,10,28.00
2018,01,28,12,11,28.00
2018,01,28,12,12,28.00
2018,01,28,12,13,28.00
2018,01,28,12,14,28.00
2018,01,28,12,15,29.20
2018,01,28,12,16,30.00
2018,01,28,12,17,31.60
2018,01,28,12,18,32.00
2018,01,28,12,19,32.20
2018,01,28,12,20,33.00
2018,01,28,12,21,33.90
2018,01,28,12,22,35.00
2018,01,28,12,23,35.00
2018,01,28,12,24,35.00
2018,01,28,12,25,35.00
2018,01,28,12,26,35.90
2018,01,28,12,27,40.00
2018,01,28,12,28,40.00
2018,01,28,12,29,40.00
2018,01,28,12,30,35.20
2018,01,28,12,31,33.00
2018,01,28,12,32,33.00
2018,01,28,12,33,33.00
2018,01,28,12,34,34.20
2018,01,28,12,35,37.00
2018,01,28,12,36,37.00
2018,01,28,12,37,37.00
2018,01,28,12,38,37.00
2018,01,28,12,39,38.90
2018,01,28,12,40,39.00
2018,01,28,12,41,39.00
2018,01,28,12,42,39.00
2018,01,28,12,43,40.80
2018,01,28,12,44,42.00
2018,01,28,12,45,42.00
2018,01,28,12,46,42.00
2018,01,28,12,47,42.00
2018,01,28,12,48,42.00
2018,01,28,12,49,42.00
2018,01,28,12,50,42.00
2018,01,28,12,51,42.00
2018,01,28,12,52,40.40
2018,01,28,12,53,40.00
2018,01,28,12,54,40.40
2018,01,28,12,55,42.00
2018,01,28,12,56,42.00
2018,01,28,12,57,44.30
2018,01,28,12,58,46.00
2018,01,28,12,59,46.00
2018,01,28,13,00,48.90
2018,01,28,13,01,49.00
2018,01,28,13,02,48.00
2018,01,28,13,03,46.00
2018,01,28,13,04,44.90
2018,01,28,13,05,44.00
2018,01,28,13,06,48.00
2018,01,28,13,07,49.00
2018,01,28,13,08,49.00
2018,01,28,13,09,49.00
2018,01,28,13,10,49.00
2018,01,28,13,11,49.00
2018,01,28,13,12,49.00
2018,01,28,13,13,49.00
2018,01,28,13,14,49.00
2018,01,28,13,15,49.00
2018,01,28,13,16,49.00
2018,01,28,13,17,49.00
2018,01,28,13,18,49.00
2018,01,28,15,01,19.00
2018,01,28,15,02,19.00
2018,01,28,15,03,19.00
2018,01,28,15,04,18.30
2018,01,28,15,05,18.00
2018,01,28,15,06,18.00
2018,01,28,15,07,18.00
2018,01,28,15,08,18.00
2018,01,28,15,09,18.00
2018,01,28,15,10,18.00
2018,01,28,15,11,16.60
2018,01,28,15,12,14.30
2018,01,28,15,13,14.00
2018,01,28,15,14,14.00
2018,01,28,15,15,14.00
2018,01,28,15,16,13.20
2018,01,28,15,17,12.00
2018,01,28,15,18,12.00
2018,01,28,15,19,12.00
2018,01,28,15,20,12.00
2018,01,28,15,21,12.00
2018,01,28,15,22,12.00
2018,01,28,15,23,12.00
2018,01,28,15,24,12.00
2018,01,28,15,25,12.00
2018,01,28,15,26,12.00
2018,01,28,15,27,12.00
2018,01,28,15,28,12.00
2018,01,28,15,29,12.00
2018,01,28,15,30,9.80
2018,01,28,15,31,7.00
2018,01,28,15,32,8.40
2018,01,28,15,33,9.00
2018,01,28,15,34,9.00
2018,01,28,15,35,9.00
2018,01,28,15,36,8.30
2018,01,28,15,37,7.00
2018,01,28,15,38,7.00
2018,01,28,15,39,7.00
2018,01,28,15,40,7.00
2018,01,28,15,41,7.10
2018,01,28,15,42,9.00
2018,01,28,15,43,8.40
2018,01,28,15,44,7.00
2018,01,28,15,45,8.10
2018,01,28,15,46,9.00
2018,01,28,15,47,9.00
2018,01,28,15,48,9.00
2018,01,28,15,49,9.00
2018,01,28,15,50,9.00
2018,01,28,15,51,8.10
2018,01,28,15,52,7.00
2018,01,28,15,53,7.00
2018,01,28,15,54,7.00
2018,01,28,15,55,7.00
2018,01,28,15,56,6.60
2018,01,28,15,57,5.00
2018,01,28,15,58,5.80
2018,01,28,15,59,7.00
2018,01,28,16,00,7.00
2018,01,28,16,01,7.00
2018,01,28,16,02,7.00
2018,01,28,16,03,7.00
2018,01,28,16,04,7.60
2018,01,28,16,05,8.10
2018,01,28,16,06,7.00
2018,01,28,16,07,7.00
2018,01,28,16,08,7.00
2018,01,28,16,09,7.00
2018,01,28,16,10,7.00
2018,01,28,16,11,7.00
2018,01,28,16,12,7.00
2018,01,28,16,13,5.90
2018,01,28,16,14,5.00
2018,01,28,16,15,5.00
2018,01,28,16,16,5.00
2018,01,28,16,17,5.00
2018,01,28,16,18,5.00
2018,01,28,16,19,5.00
2018,01,28,16,20,5.00
2018,01,28,16,21,5.00
2018,01,28,16,22,5.00
2018,01,28,16,23,5.00
2018,01,28,16,24,5.00
2018,01,28,16,25,5.00
2018,01,28,16,26,2.80
2018,01,28,16,27,0.00
2018,01,28,16,28,0.00
2018,01,28,16,29,0.00
2018,01,28,16,30,0.00
2018,01,28,16,31,0.00
2018,01,28,16,32,0.00
2018,01,28,16,33,0.00
2018,01,28,16,34,0.00
2018,01,28,16,35,0.00
2018,01,28,16,36,0.00
2018,01,28,16,37,0.00
2018,01,28,16,38,0.00
2018,01,28,16,39,0.00
2018,01,28,16,40,0.00
2018,01,28,16,41,0.00
2018,01,28,16,42,0.00
2018,01,28,16,43,0.00
2018,01,28,16,44,0.00
2018,01,28,16,45,0.00
2018,01,28,16,46,0.00
2018,01,28,16,47,0.00
2018,01,28,16,48,0.00
2018,01,28,16,49,0.00
2018,01,28,16,50,0.00
2018,01,28,16,51,0.00
2018,01,28,16,52,0.00
2018,01,28,16,53,0.00
2018,01,28,16,54,0.00
2018,01,28,16,55,0.00
2018,01,28,16,56,0.00
2018,01,28,16,57,0.00
2018,01,28,16,58,0.00
2018,01,28,16,59,0.00
2018,01,28,17,00,0.00
2018,01,28,17,01,0.00
2018,01,28,17,02,0.00
2018,01,28,17,03,0.00
2018,01,28,17,04,0.00
2018,01,28,17,05,0.00
2018,01,28,17,06,0.00
2018,01,28,17,07,0.00
2018,01,28,17,08,0.00
2018,01,28,17,09,0.00
2018,01,28,17,10,0.00
2018,01,28,17,11,0.00
2018,01,28,17,12,0.00
2018,01,28,17,13,0.00
2018,01,28,17,14,0.00
2018,01,28,17,15,0.00
2018,01,28,17,16,0.00
2018,01,28,17,17,0.00
2018,01,28,17,18,0.00
2018,01,28,17,19,0.00
2018,01,28,17,20,0.00
2018,01,28,17,21,0.00
2018,01,28,17,22,0.00
2018,01,28,17,23,0.00
2018,01,28,17,24,0.00
2018,01,28,17,25,0.00
2018,01,28,17,26,0.00
2018,01,28,17,27,0.00
2018,01,28,17,28,0.00
2018,01,28,17,29,0.00
2018,01,28,17,30,0.00
2018,01,28,17,31,0.00
2018,01,28,17,32,0.00
2018,01,28,17,33,0.00
2018,01,28,17,34,0.00
2018,01,28,17,35,0.00
2018,01,28,17,36,0.00
2018,01,28,17,37,0.00
2018,01,28,17,38,0.00
2018,01,28,17,39,0.00
2018,01,28,17,40,0.00
2018,01,28,17,41,0.00
2018,01,28,17,42,0.00
2018,01,28,17,43,0.00
2018,01,28,17,44,0.00
2018,01,28,17,45,0.00
2018,01,28,17,46,0.00
2018,01,28,17,47,0.00
2018,01,28,17,48,0.00
2018,01,28,17,49,0.00
2018,01,28,17,50,0.00
2018,01,28,17,51,0.00
2018,01,28,17,52,0.00
2018,01,28,17,53,0.00
2018,01,28,17,54,0.00
2018,01,28,17,55,0.00
2018,01,28,17,56,0.00
2018,01,28,17,57,0.00
2018,01,28,17,58,0.00
2018,01,28,17,59,0.00
2018,01,28,18,00,0.00
2018,01,28,18,01,0.00
2018,01,28,18,02,0.00
2018,01,28,18,03,0.00
2018,01,28,18,04,0.00
2018,01,28,18,05,0.00
2018,01,28,18,06,0.00
2018,01,28,18,07,0.00
2018,01,28,18,08,0.00
2018,01,28,18,09,0.00
2018,01,28,18,10,0.00
2018,01,28,18,11,0.00
2018,01,28,18,12,0.00
2018,01,28,18,13,0.00
2018,01,28,18,14,0.00
2018,01,28,18,15,0.00
2018,01,28,18,16,0.00
2018,01,28,18,17,0.00
2018,01,28,18,18,0.00
2018,01,28,18,19,0.00
2018,01,28,18,20,0.00
2018,01,28,18,21,0.00
2018,01,28,18,22,0.00
2018,01,28,18,23,0.00
2018,01,28,18,24,0.00
2018,01,28,18,25,0.00
2018,01,28,18,26,0.00
2018,01,28,18,27,0.00
2018,01,28,18,28,0.00
2018,01,28,18,29,0.00
2018,01,28,18,30,0.00
2018,01,28,18,31,0.00
2018,01,28,18,32,0.00
2018,01,28,18,33,0.00
2018,01,28,18,34,0.00
2018,01,28,18,35,0.00
2018,01,28,18,36,0.00
2018,01,28,18,37,0.00
2018,01,28,18,38,0.00
2018,01,28,18,39,0.00
2018,01,28,18,40,0.00
2018,01,28,18,41,0.00
2018,01,28,18,42,0.00
2018,01,28,18,43,0.00
2018,01,28,18,44,0.00
2018,01,28,18,45,0.00
2018,01,28,18,46,0.00
2018,01,28,18,47,0.00
2018,01,28,18,48,0.00
2018,01,28,18,49,0.00
2018,01,28,18,50,0.00
2018,01,28,18,51,0.00
2018,01,28,18,52,0.00
2018,01,28,18,53,0.00
2018,01,28,18,54,0.00
2018,01,28,18,55,0.00
2018,01,28,18,56,0.00
2018,01,28,18,57,0.00
2018,01,28,18,58,0.00
2018,01,28,18,59,0.00
2018,01,28,19,00,0.00
2018,01,28,19,01,0.00
2018,01,28,19,02,0.00
2018,01,28,19,03,0.00
2018,01,28,19,04,0.00
2018,01,28,19,05,0.00
2018,01,28,19,06,0.00
2018,01,28,19,07,0.00
2018,01,28,19,08,0.00
2018,01,28,19,09,0.00
2018,01,28,19,10,0.00
2018,01,28,19,11,0.00
2018,01,28,19,12,0.00
2018,01,28,19,13,0.00
2018,01,28,19,14,0.00
2018,01,28,19,15,0.00
2018,01,28,19,16,0.00
2018,01,28,19,17,0.00
2018,01,28,19,18,0.00
2018,01,28,19,19,0.00
2018,01,28,19,20,0.00
2018,01,28,19,21,0.00
2018,01,28,19,22,0.00
2018,01,28,19,23,0.00
2018,01,28,19,24,0.00
2018,01,28,19,25,0.00
2018,01,28,19,26,0.00
2018,01,28,19,27,0.00
2018,01,28,19,28,0.00
2018,01,28,19,29,0.00
2018,01,28,19,30,0.00
2018,01,28,19,31,0.00
2018,01,28,19,32,0.00
2018,01,28,19,33,0.00
2018,01,28,19,34,0.00
2018,01,28,19,35,0.00
2018,01,28,19,36,0.00
2018,01,28,19,37,0.00
2018,01,28,19,38,0.00
2018,01,28,19,39,0.00
2018,01,28,19,40,0.00
2018,01,28,19,41,0.00
2018,01,28,19,42,0.00
2018,01,28,19,43,0.00
2018,01,28,19,44,0.00
2018,01,28,19,45,0.00
2018,01,28,19,46,0.00
2018,01,28,19,47,0.00
2018,01,28,19,48,0.00
2018,01,28,19,49,0.00
2018,01,28,19,50,0.00
2018,01,28,19,51,0.00
2018,01,28,19,52,0.00
2018,01,28,19,53,0.00
2018,01,28,19,54,0.00
2018,01,28,19,55,0.00
2018,01,28,19,56,0.00
2018,01,28,19,57,0.00
2018,01,28,19,58,0.00
2018,01,28,19,59,0.00
2018,01,28,20,00,0.00
2018,01,28,20,01,0.00
2018,01,28,20,02,0.00
2018,01,28,20,03,0.00
2018,01,28,20,04,0.00
2018,01,28,20,05,0.00
2018,01,28,20,06,0.00
2018,01,28,20,07,0.00
2018,01,28,20,08,0.00
2018,01,28,20,09,0.00
2018,01,28,20,10,0.00
2018,01,28,20,11,0.00
2018,01,28,20,12,0.00
2018,01,28,20,13,0.00
2018,01,28,20,14,0.00
2018,01,28,20,15,0.00
2018,01,28,20,16,0.00
2018,01,28,20,17,0.00
2018,01,28,20,18,0.00
2018,01,28,20,19,0.00
2018,01,28,20,20,0.00
2018,01,28,20,21,0.00
2018,01,28,20,22,0.00
2018,01,28,20,23,0.00
2018,01,28,20,24,0.00
2018,01,28,20,25,0.00
2018,01,28,20,26,0.00
2018,01,28,20,27,0.00
2018,01,28,20,28,0.00
2018,01,28,20,29,0.00
2018,01,28,20,30,0.00
2018,01,28,20,31,0.00
2018,01,28,20,32,0.00
2018,01,28,20,33,0.00